QPF
0.19 0.33 0.59 0.93 1.26 1.82 2.48 2.75 2.41 1.94 1.32 0.86 0.55 0.31 0.19 0.13 0.09 0.06 0.03 0.01 0.01 0.00 0.00 0.00 0.00 0.00 0.00 0.00 0.00 0.00 0.00 0.00 0.00 0.00 0.00 0.00 0.00 0.00 0.00 0.00 0.01 0.02 0.03
0.24 0.47 0.77 1.06 1.34 1.78 2.31 2.41 2.06 1.56 0.97 0.60 0.40 0.26 0.16 0.10 0.05 0.04 0.03 0.01 0.00 0.00 0.00 0.00 0.00 0.00 0.00 0.00 0.00 0.00 0.00 0.00 0.00 0.00 0.00 0.00 0.00 0.00 0.00 0.00 0.01 0.02 0.04
0.25 0.51 0.78 1.08 1.37 1.51 1.60 1.62 1.26 0.77 0.51 0.33 0.25 0.17 0.13 0.12 0.08 0.05 0.03 0.01 0.00 0.00 0.00 0.00 0.00 0.00 0.00 0.00 0.00 0.00 0.00 0.00 0.00 0.00 0.01 0.01 0.00 0.00 0.00 0.00 0.01 0.02 0.05
0.20 0.39 0.52 0.60 0.76 0.92 0.91 0.76 0.62 0.40 0.27 0.23 0.22 0.19 0.13 0.11 0.08 0.05 0.03 0.01 0.00 0.00 0.00 0.00 0.00 0.00 0.00 0.00 0.00 0.00 0.00 0.00 0.00 0.00 0.00 0.01 0.01 0.01 0.00 0.00 0.01 0.02 0.06
0.09 0.15 0.20 0.21 0.27 0.35 0.40 0.36 0.35 0.27 0.26 0.27 0.27 0.28 0.18 0.11 0.08 0.06 0.05 0.04 0.02 0.02 0.01 0.00 0.00 0.00 0.00 0.00 0.00 0.00 0.00 0.00 0.00 0.00 0.00 0.00 0.00 0.01 0.01 0.00 0.00 0.01 0.03
0.03 0.04 0.04 0.06 0.08 0.08 0.15 0.22 0.27 0.28 0.26 0.23 0.21 0.19 0.14 0.11 0.09 0.07 0.07 0.06 0.05 0.04 0.03 0.01 0.01 0.01 0.00 0.00 0.00 0.00 0.00 0.00 0.00 0.00 0.00 0.00 0.00 0.00 0.01 0.01 0.00 0.00 0.00
0.01 0.01 0.02 0.03 0.05 0.06 0.12 0.15 0.14 0.15 0.17 0.17 0.16 0.14 0.14 0.12 0.11 0.10 0.08 0.07 0.07 0.07 0.06 0.04 0.03 0.02 0.01 0.01 0.00 0.00 0.00 0.00 0.00 0.00 0.00 0.00 0.00 0.01 0.01 0.01 0.00 0.00 0.01
0.00 0.00 0.00 0.01 0.01 0.02 0.03 0.04 0.05 0.06 0.08 0.08 0.09 0.10 0.11 0.11 0.12 0.12 0.10 0.10 0.11 0.12 0.12 0.10 0.08 0.06 0.04 0.02 0.01 0.00 0.00 0.00 0.00 0.00 0.00 0.00 0.00 0.01 0.01 0.01 0.01 0.01 0.01
0.00 0.00 0.00 0.00 0.00 0.01 0.01 0.01 0.02 0.02 0.03 0.03 0.03 0.05 0.06 0.06 0.07 0.09 0.09 0.09 0.12 0.14 0.15 0.15 0.14 0.10 0.08 0.06 0.03 0.02 0.01 0.00 0.00 0.00 0.00 0.00 0.00 0.00 0.01 0.01 0.02 0.02 0.01
0.00 0.00 0.00 0.00 0.00 0.00 0.00 0.00 0.00 0.00 0.00 0.01 0.01 0.01 0.02 0.02 0.03 0.03 0.04 0.05 0.06 0.07 0.10 0.13 0.13 0.12 0.12 0.11 0.07 0.03 0.01 0.00 0.00 0.00 0.00 0.00 0.00 0.00 0.00 0.01 0.02 0.03 0.03
0.00 0.00 0.00 0.00 0.00 0.00 0.00 0.00 0.00 0.00 0.00 0.00 0.00 0.00 0.00 0.00 0.00 0.01 0.01 0.01 0.01 0.02 0.03 0.05 0.07 0.07 0.09 0.11 0.10 0.07 0.03 0.01 0.00 0.01 0.00 0.00 0.00 0.00 0.00 0.01 0.02 0.04 0.05
0.00 0.00 0.00 0.00 0.00 0.00 0.00 0.00 0.00 0.00 0.00 0.00 0.00 0.00 0.00 0.00 0.00 0.00 0.00 0.00 0.00 0.00 0.00 0.01 0.03 0.04 0.05 0.08 0.10 0.09 0.06 0.03 0.01 0.01 0.00 0.00 0.00 0.00 0.00 0.01 0.02 0.04 0.07
0.00 0.00 0.00 0.00 0.00 0.00 0.00 0.00 0.00 0.00 0.00 0.00 0.00 0.00 0.00 0.00 0.00 0.00 0.00 0.00 0.00 0.00 0.00 0.00 0.01 0.02 0.03 0.04 0.07 0.08 0.07 0.05 0.03 0.01 0.00 0.00 0.00 0.00 0.00 0.00 0.01 0.03 0.09
0.00 0.00 0.00 0.00 0.00 0.00 0.00 0.00 0.00 0.00 0.00 0.00 0.00 0.00 0.00 0.00 0.00 0.00 0.00 0.00 0.00 0.00 0.00 0.00 0.00 0.01 0.01 0.02 0.04 0.06 0.07 0.06 0.05 0.03 0.01 0.00 0.00 0.00 0.00 0.00 0.01 0.03 0.05
0.00 0.00 0.00 0.00 0.00 0.00 0.00 0.00 0.00 0.00 0.00 0.00 0.00 0.00 0.00 0.00 0.00 0.00 0.00 0.00 0.00 0.00 0.00 0.00 0.00 0.00 0.00 0.01 0.03 0.05 0.06 0.06 0.05 0.04 0.02 0.01 0.00 0.00 0.00 0.00 0.01 0.01 0.02
0.00 0.00 0.00 0.00 0.00 0.00 0.00 0.00 0.00 0.00 0.00 0.00 0.00 0.00 0.00 0.00 0.00 0.00 0.00 0.00 0.00 0.00 0.00 0.00 0.00 0.00 0.00 0.01 0.02 0.03 0.05 0.05 0.06 0.04 0.03 0.02 0.01 0.00 0.00 0.00 0.00 0.01 0.01
0.00 0.00 0.00 0.00 0.00 0.00 0.00 0.00 0.00 0.00 0.00 0.00 0.00 0.00 0.00 0.00 0.00 0.00 0.01 0.01 0.01 0.01 0.01 0.00 0.00 0.00 0.00 0.00 0.01 0.02 0.03 0.05 0.06 0.06 0.05 0.03 0.01 0.01 0.00 0.00 0.00 0.01 0.01
0.00 0.00 0.00 0.00 0.00 0.00 0.00 0.00 0.00 0.00 0.00 0.00 0.00 0.00 0.00 0.00 0.00 0.00 0.00 0.00 0.00 0.01 0.01 0.01 0.00 0.00 0.00 0.00 0.01 0.01 0.02 0.03 0.06 0.07 0.06 0.04 0.02 0.01 0.00 0.00 0.00 0.01 0.01
0.00 0.00 0.00 0.00 0.00 0.00 0.00 0.00 0.00 0.00 0.01 0.01 0.01 0.01 0.00 0.00 0.00 0.00 0.00 0.00 0.00 0.00 0.00 0.00 0.01 0.01 0.01 0.01 0.01 0.02 0.03 0.05 0.06 0.08 0.08 0.06 0.02 0.01 0.01 0.00 0.00 0.01 0.01
0.00 0.00 0.00 0.00 0.00 0.00 0.00 0.01 0.01 0.01 0.02 0.02 0.02 0.02 0.01 0.01 0.01 0.00 0.00 0.00 0.00 0.00 0.00 0.00 0.01 0.01 0.01 0.01 0.01 0.03 0.05 0.06 0.08 0.10 0.11 0.09 0.05 0.03 0.01 0.00 0.00 0.01 0.01
0.00 0.00 0.00 0.00 0.00 0.00 0.01 0.02 0.02 0.02 0.03 0.04 0.04 0.03 0.02 0.02 0.02 0.01 0.01 0.01 0.01 0.01 0.01 0.00 0.00 0.01 0.01 0.01 0.01 0.02 0.05 0.09 0.13 0.14 0.13 0.12 0.08 0.04 0.02 0.00 0.00 0.01 0.01
0.00 0.00 0.00 0.00 0.00 0.01 0.02 0.04 0.04 0.04 0.04 0.05 0.05 0.04 0.04 0.03 0.03 0.02 0.02 0.01 0.01 0.01 0.01 0.01 0.00 0.01 0.01 0.01 0.01 0.02 0.05 0.10 0.18 0.21 0.19 0.15 0.11 0.06 0.03 0.01 0.01 0.01 0.01
0.00 0.00 0.00 0.01 0.01 0.01 0.03 0.06 0.06 0.05 0.06 0.06 0.05 0.05 0.05 0.04 0.04 0.04 0.03 0.02 0.01 0.01 0.01 0.01 0.01 0.01 0.02 0.02 0.01 0.02 0.04 0.11 0.22 0.31 0.31 0.23 0.15 0.10 0.05 0.02 0.01 0.01 0.00
0.00 0.01 0.02 0.02 0.02 0.02 0.03 0.04 0.05 0.07 0.08 0.08 0.07 0.06 0.06 0.05 0.04 0.04 0.04 0.03 0.02 0.01 0.01 0.02 0.02 0.02 0.03 0.03 0.02 0.02 0.04 0.11 0.25 0.38 0.39 0.32 0.23 0.15 0.08 0.04 0.02 0.01 0.00
0.01 0.02 0.03 0.04 0.03 0.03 0.03 0.04 0.06 0.08 0.10 0.09 0.08 0.07 0.07 0.07 0.06 0.05 0.04 0.03 0.02 0.02 0.01 0.02 0.02 0.02 0.03 0.04 0.05 0.04 0.06 0.13 0.28 0.45 0.50 0.42 0.33 0.23 0.11 0.05 0.02 0.01 0.00
0.02 0.03 0.04 0.04 0.04 0.04 0.04 0.04 0.06 0.08 0.09 0.08 0.06 0.06 0.06 0.06 0.06 0.04 0.03 0.02 0.01 0.01 0.00 0.01 0.02 0.02 0.02 0.02 0.04 0.06 0.10 0.17 0.32 0.51 0.58 0.46 0.34 0.24 0.11 0.04 0.02 0.01 0.01
MSLP
1012.27 1012.26 1012.15 1011.91 1011.53 1011.03 1010.45 1009.84 1009.27 1008.79 1008.45 1008.26 1008.20 1008.26 1008.38 1008.54 1008.70 1008.85 1008.98 1009.13 1009.30 1009.53 1009.81 1010.14 1010.49 1010.83 1011.13 1011.34 1011.45 1011.46 1011.39 1011.26 1011.11 1010.96 1010.83 1010.72 1010.62 1010.50 1010.35 1010.15 1009.93 1009.68 1009.43
1013.21 1013.06 1012.81 1012.42 1011.90 1011.27 1010.60 1009.93 1009.36 1008.91 1008.63 1008.52 1008.53 1008.64 1008.77 1008.89 1008.97 1009.01 1009.02 1009.04 1009.11 1009.26 1009.50 1009.83 1010.22 1010.62 1010.97 1011.24 1011.39 1011.43 1011.36 1011.22 1011.05 1010.88 1010.73 1010.60 1010.49 1010.38 1010.24 1010.06 1009.84 1009.58 1009.30
1013.88 1013.66 1013.33 1012.88 1012.30 1011.63 1010.93 1010.28 1009.73 1009.33 1009.12 1009.06 1009.12 1009.24 1009.35 1009.41 1009.40 1009.30 1009.18 1009.06 1009.00 1009.05 1009.23 1009.54 1009.92 1010.33 1010.72 1011.02 1011.21 1011.27 1011.22 1011.09 1010.91 1010.74 1010.59 1010.48 1010.40 1010.32 1010.21 1010.07 1009.86 1009.60 1009.30
1014.30 1014.06 1013.74 1013.30 1012.74 1012.10 1011.44 1010.83 1010.33 1010.00 1009.82 1009.80 1009.88 1009.98 1010.05 1010.04 1009.91 1009.70 1009.43 1009.17 1008.99 1008.93 1009.02 1009.26 1009.61 1010.00 1010.39 1010.70 1010.91 1010.99 1010.95 1010.83 1010.68 1010.53 1010.41 1010.33 1010.29 1010.26 1010.21 1010.11 1009.94 1009.69 1009.39
1014.49 1014.29 1014.02 1013.65 1013.18 1012.63 1012.05 1011.51 1011.07 1010.78 1010.64 1010.62 1010.69 1010.76 1010.77 1010.68 1010.46 1010.13 1009.74 1009.36 1009.06 1008.88 1008.87 1009.03 1009.31 1009.65 1010.00 1010.30 1010.49 1010.57 1010.55 1010.45 1010.33 1010.21 1010.13 1010.11 1010.12 1010.15 1010.16 1010.12 1009.99 1009.78 1009.49
1014.49 1014.36 1014.18 1013.93 1013.57 1013.13 1012.64 1012.18 1011.80 1011.54 1011.41 1011.39 1011.42 1011.45 1011.41 1011.25 1010.95 1010.54 1010.07 1009.59 1009.19 1008.91 1008.80 1008.85 1009.04 1009.31 1009.59 1009.83 1010.00 1010.07 1010.05 1009.97 1009.87 1009.79 1009.76 1009.78 1009.85 1009.94 1010.01 1010.03 1009.96 1009.81 1009.56
1014.36 1014.30 1014.23 1014.09 1013.84 1013.51 1013.12 1012.73 1012.40 1012.16 1012.02 1011.98 1011.98 1011.96 1011.88 1011.68 1011.34 1010.89 1010.37 1009.84 1009.37 1009.02 1008.81 1008.76 1008.83 1008.99 1009.18 1009.35 1009.46 1009.50 1009.47 1009.39 1009.31 1009.26 1009.27 1009.33 1009.44 1009.58 1009.71 1009.79 1009.79 1009.70 1009.52
1014.15 1014.16 1014.17 1014.12 1013.97 1013.72 1013.41 1013.07 1012.76 1012.53 1012.38 1012.31 1012.28 1012.24 1012.13 1011.92 1011.59 1011.14 1010.62 1010.08 1009.58 1009.16 1008.88 1008.73 1008.69 1008.74 1008.82 1008.89 1008.93 1008.91 1008.85 1008.77 1008.70 1008.66 1008.69 1008.77 1008.91 1009.08 1009.25 1009.38 1009.44 1009.43 1009.34
1013.93 1013.97 1014.02 1014.02 1013.92 1013.73 1013.46 1013.15 1012.85 1012.61 1012.45 1012.36 1012.30 1012.25 1012.15 1011.95 1011.65 1011.25 1010.77 1010.25 1009.76 1009.32 1008.98 1008.75 1008.61 1008.54 1008.51 1008.48 1008.43 1008.36 1008.26 1008.16 1008.08 1008.04 1008.06 1008.15 1008.29 1008.47 1008.65 1008.82 1008.94 1009.00 1009.01
1013.75 1013.78 1013.82 1013.82 1013.73 1013.54 1013.27 1012.97 1012.67 1012.42 1012.23 1012.12 1012.06 1012.01 1011.92 1011.77 1011.53 1011.20 1010.78 1010.33 1009.87 1009.44 1009.07 1008.78 1008.56 1008.39 1008.26 1008.14 1008.01 1007.87 1007.73 1007.60 1007.50 1007.44 1007.45 1007.52 1007.64 1007.80 1007.98 1008.16 1008.32 1008.45 1008.55
1013.64 1013.61 1013.59 1013.53 1013.39 1013.17 1012.88 1012.56 1012.24 1011.97 1011.77 1011.64 1011.57 1011.53 1011.47 1011.37 1011.20 1010.95 1010.63 1010.26 1009.86 1009.47 1009.11 1008.79 1008.51 1008.27 1008.06 1007.86 1007.67 1007.48 1007.30 1007.13 1007.01 1006.93 1006.90 1006.94 1007.02 1007.14 1007.30 1007.46 1007.64 1007.81 1007.99
1013.59 1013.46 1013.34 1013.18 1012.96 1012.67 1012.33 1011.97 1011.63 1011.34 1011.12 1010.98 1010.90 1010.86 1010.83 1010.78 1010.67 1010.51 1010.28 1010.00 1009.68 1009.35 1009.02 1008.71 1008.41 1008.14 1007.88 1007.63 1007.39 1007.16 1006.95 1006.77 1006.62 1006.52 1006.46 1006.45 1006.48 1006.56 1006.66 1006.80 1006.96 1007.15 1007.37
1013.56 1013.30 1013.04 1012.76 1012.43 1012.06 1011.66 1011.26 1010.89 1010.57 1010.33 1010.17 1010.08 1010.04 1010.02 1010.00 1009.95 1009.86 1009.71 1009.53 1009.30 1009.05 1008.78 1008.50 1008.22 1007.94 1007.67 1007.40 1007.14 1006.90 1006.68 1006.48 1006.32 1006.20 1006.11 1006.06 1006.05 1006.06 1006.12 1006.20 1006.33 1006.50 1006.73
1013.49 1013.08 1012.68 1012.25 1011.81 1011.35 1010.89 1010.45 1010.05 1009.71 1009.45 1009.26 1009.14 1009.08 1009.06 1009.05 1009.04 1009.01 1008.94 1008.85 1008.72 1008.55 1008.36 1008.14 1007.90 1007.65 1007.39 1007.12 1006.87 1006.63 1006.41 1006.22 1006.06 1005.93 1005.83 1005.75 1005.70 1005.67 1005.66 1005.69 1005.77 1005.90 1006.11
1013.32 1012.77 1012.22 1011.66 1011.11 1010.57 1010.05 1009.57 1009.14 1008.78 1008.49 1008.28 1008.13 1008.04 1007.99 1007.98 1007.99 1007.99 1007.99 1007.98 1007.93 1007.86 1007.75 1007.61 1007.43 1007.22 1007.00 1006.76 1006.53 1006.30 1006.11 1005.93 1005.79 1005.67 1005.57 1005.48 1005.40 1005.34 1005.29 1005.27 1005.29 1005.38 1005.55
1013.01 1012.33 1011.65 1010.98 1010.34 1009.73 1009.17 1008.65 1008.20 1007.82 1007.50 1007.25 1007.06 1006.93 1006.85 1006.82 1006.83 1006.86 1006.91 1006.96 1006.99 1007.01 1006.98 1006.92 1006.81 1006.66 1006.48 1006.27 1006.07 1005.88 1005.70 1005.56 1005.44 1005.34 1005.26 1005.19 1005.11 1005.04 1004.97 1004.92 1004.90 1004.95 1005.07
1012.57 1011.78 1011.00 1010.24 1009.53 1008.87 1008.27 1007.74 1007.27 1006.86 1006.51 1006.22 1005.98 1005.81 1005.69 1005.63 1005.63 1005.68 1005.76 1005.86 1005.96 1006.05 1006.11 1006.11 1006.07 1005.97 1005.83 1005.67 1005.49 1005.33 1005.18 1005.07 1004.99 1004.93 1004.88 1004.84 1004.79 1004.74 1004.68 1004.62 1004.60 1004.62 1004.70
1012.03 1011.17 1010.32 1009.50 1008.74 1008.05 1007.42 1006.86 1006.37 1005.93 1005.55 1005.22 1004.94 1004.72 1004.56 1004.47 1004.45 1004.50 1004.61 1004.75 1004.91 1005.05 1005.17 1005.24 1005.24 1005.19 1005.09 1004.95 1004.81 1004.67 1004.55 1004.47 1004.42 1004.41 1004.41 1004.42 1004.43 1004.42 1004.40 1004.38 1004.37 1004.40 1004.48
1011.48 1010.57 1009.68 1008.83 1008.04 1007.32 1006.67 1006.08 1005.56 1005.09 1004.67 1004.29 1003.97 1003.70 1003.50 1003.38 1003.35 1003.40 1003.52 1003.69 1003.88 1004.07 1004.23 1004.34 1004.39 1004.37 1004.30 1004.19 1004.06 1003.94 1003.85 1003.80 1003.79 1003.82 1003.88 1003.95 1004.03 1004.09 1004.14 1004.19 1004.24 1004.31 1004.42
1010.97 1010.05 1009.15 1008.28 1007.47 1006.73 1006.05 1005.43 1004.87 1004.36 1003.89 1003.46 1003.09 1002.78 1002.55 1002.41 1002.36 1002.40 1002.53 1002.72 1002.93 1003.15 1003.34 1003.48 1003.55 1003.56 1003.51 1003.41 1003.30 1003.20 1003.13 1003.11 1003.13 1003.21 1003.32 1003.46 1003.62 1003.77 1003.91 1004.04 1004.17 1004.32 1004.50
1010.58 1009.67 1008.77 1007.89 1007.07 1006.29 1005.58 1004.92 1004.31 1003.74 1003.22 1002.75 1002.33 1001.99 1001.72 1001.56 1001.50 1001.54 1001.66 1001.85 1002.08 1002.31 1002.52 1002.68 1002.77 1002.79 1002.76 1002.69 1002.60 1002.51 1002.46 1002.47 1002.52 1002.64 1002.80 1003.00 1003.23 1003.46 1003.70 1003.94 1004.17 1004.42 1004.69
1010.31 1009.43 1008.54 1007.66 1006.82 1006.01 1005.25 1004.54 1003.87 1003.25 1002.67 1002.15 1001.69 1001.31 1001.02 1000.84 1000.76 1000.79 1000.91 1001.10 1001.33 1001.57 1001.78 1001.95 1002.05 1002.10 1002.09 1002.04 1001.97 1001.91 1001.89 1001.91 1002.00 1002.14 1002.35 1002.60 1002.89 1003.20 1003.52 1003.86 1004.21 1004.56 1004.94
1010.15 1009.30 1008.43 1007.55 1006.68 1005.84 1005.03 1004.26 1003.53 1002.84 1002.21 1001.64 1001.14 1000.74 1000.43 1000.23 1000.14 1000.17 1000.28 1000.45 1000.67 1000.90 1001.12 1001.29 1001.41 1001.48 1001.49 1001.47 1001.44 1001.41 1001.41 1001.46 1001.57 1001.74 1001.97 1002.25 1002.58 1002.95 1003.36 1003.78 1004.23 1004.69 1005.18
1010.05 1009.23 1008.37 1007.49 1006.60 1005.72 1004.86 1004.03 1003.24 1002.50 1001.82 1001.21 1000.69 1000.26 999.94 999.73 999.63 999.64 999.74 999.90 1000.10 1000.32 1000.53 1000.71 1000.84 1000.93 1000.98 1000.99 1001.00 1001.01 1001.04 1001.11 1001.23 1001.42 1001.66 1001.96 1002.31 1002.72 1003.17 1003.67 1004.20 1004.76 1005.34
1009.96 1009.16 1008.32 1007.43 1006.52 1005.61 1004.70 1003.82 1002.98 1002.20 1001.48 1000.85 1000.31 999.87 999.54 999.33 999.22 999.21 999.29 999.43 999.62 999.82 1000.02 1000.19 1000.34 1000.45 1000.53 1000.59 1000.63 1000.67 1000.73 1000.83 1000.96 1001.15 1001.39 1001.69 1002.06 1002.48 1002.96 1003.51 1004.10 1004.73 1005.39
1009.83 1009.05 1008.21 1007.32 1006.40 1005.46 1004.52 1003.60 1002.74 1001.93 1001.19 1000.55 1000.01 999.57 999.24 999.03 998.91 998.89 998.95 999.07 999.22 999.40 999.58 999.76 999.91 1000.04 1000.15 1000.24 1000.32 1000.39 1000.48 1000.59 1000.73 1000.92 1001.15 1001.44 1001.80 1002.22 1002.72 1003.28 1003.91 1004.59 1005.32
Thickness
5754 5755 5755 5754 5753 5749 5744 5740 5733 5727 5727 5728 5728 5729 5732 5737 5739 5740 5741 5739 5737 5735 5731 5729 5727 5726 5724 5724 5725 5724 5723 5724 5727 5726 5725 5729 5733 5734 5734 5734 5732 5731 5732
5741 5742 5742 5741 5739 5738 5738 5736 5728 5722 5720 5719 5723 5725 5727 5729 5731 5733 5734 5733 5732 5730 5728 5725 5723 5722 5720 5719 5720 5720 5718 5719 5722 5721 5718 5716 5720 5726 5731 5729 5728 5727 5727
5726 5728 5729 5729 5730 5730 5728 5728 5722 5718 5715 5717 5719 5719 5719 5720 5721 5722 5724 5725 5726 5726 5725 5722 5720 5719 5717 5715 5716 5716 5715 5713 5716 5719 5716 5710 5707 5711 5719 5722 5722 5721 5720
5719 5720 5721 5722 5721 5720 5719 5715 5711 5709 5708 5711 5711 5710 5708 5707 5710 5713 5716 5718 5720 5720 5720 5718 5717 5715 5713 5712 5712 5713 5712 5711 5709 5713 5716 5714 5712 5707 5706 5712 5715 5716 5715
5712 5712 5713 5712 5710 5708 5705 5702 5699 5698 5699 5700 5700 5699 5699 5699 5702 5705 5707 5709 5712 5713 5713 5713 5712 5711 5710 5709 5708 5708 5708 5708 5707 5707 5709 5710 5709 5708 5703 5701 5705 5708 5710
5703 5702 5702 5700 5698 5696 5693 5690 5687 5686 5686 5687 5687 5686 5686 5686 5688 5691 5694 5698 5701 5704 5706 5707 5707 5706 5705 5704 5704 5704 5704 5705 5705 5706 5706 5705 5703 5702 5700 5698 5699 5699 5703
5693 5691 5689 5686 5683 5681 5679 5677 5676 5674 5674 5674 5673 5673 5673 5674 5674 5676 5679 5682 5686 5691 5695 5698 5699 5700 5701 5700 5699 5698 5698 5700 5701 5702 5703 5704 5703 5702 5700 5697 5696 5695 5696
5685 5682 5679 5675 5671 5669 5667 5665 5664 5662 5661 5661 5660 5660 5660 5660 5661 5663 5665 5668 5672 5676 5682 5687 5691 5693 5694 5694 5694 5692 5693 5695 5697 5698 5700 5701 5701 5701 5699 5696 5693 5690 5689
5675 5671 5667 5663 5659 5656 5654 5652 5650 5649 5649 5648 5646 5645 5645 5646 5647 5650 5652 5655 5658 5663 5667 5672 5677 5681 5684 5686 5687 5686 5687 5689 5691 5693 5695 5696 5698 5698 5698 5696 5693 5688 5685
5666 5662 5657 5652 5647 5642 5638 5634 5632 5630 5630 5630 5630 5630 5629 5629 5630 5632 5635 5638 5642 5647 5651 5655 5660 5665 5670 5674 5676 5678 5681 5682 5685 5687 5689 5692 5694 5695 5694 5694 5692 5689 5686
5656 5652 5648 5643 5637 5629 5621 5614 5610 5607 5607 5608 5609 5609 5610 5610 5611 5612 5616 5620 5624 5629 5633 5638 5642 5648 5653 5659 5663 5668 5672 5674 5677 5681 5683 5686 5690 5690 5690 5690 5689 5687 5686
5647 5642 5637 5630 5623 5615 5608 5600 5594 5589 5586 5586 5586 5586 5587 5588 5589 5592 5595 5600 5604 5609 5614 5620 5625 5630 5636 5642 5648 5654 5660 5665 5669 5673 5676 5680 5684 5685 5686 5686 5685 5685 5685
5636 5629 5622 5615 5609 5602 5596 5590 5584 5579 5575 5572 5569 5568 5568 5568 5569 5572 5575 5579 5583 5588 5594 5599 5605 5611 5617 5624 5631 5638 5646 5653 5659 5665 5669 5674 5676 5678 5680 5682 5682 5682 5683
5622 5615 5608 5602 5597 5592 5587 5582 5577 5573 5569 5566 5562 5560 5558 5558 5558 5558 5559 5561 5564 5568 5573 5578 5585 5592 5599 5606 5614 5622 5631 5640 5648 5655 5661 5667 5670 5673 5675 5677 5678 5678 5679
5612 5605 5599 5594 5589 5585 5581 5577 5573 5569 5565 5560 5556 5555 5554 5552 5551 5550 5550 5551 5552 5555 5557 5560 5565 5572 5579 5588 5596 5605 5615 5624 5633 5643 5651 5658 5664 5668 5670 5672 5674 5675 5676
5602 5597 5593 5588 5585 5581 5577 5574 5569 5565 5560 5555 5552 5549 5547 5545 5543 5543 5543 5543 5544 5545 5546 5548 5551 5556 5563 5572 5579 5587 5597 5607 5618 5628 5638 5647 5655 5660 5663 5667 5670 5672 5673
5593 5590 5586 5582 5579 5576 5572 5567 5564 5559 5554 5549 5546 5543 5540 5537 5536 5535 5535 5535 5535 5537 5538 5540 5542 5545 5550 5555 5562 5571 5580 5591 5603 5615 5626 5636 5644 5650 5654 5659 5663 5667 5670
5587 5584 5579 5576 5572 5568 5563 5558 5553 5548 5543 5540 5537 5534 5531 5529 5527 5525 5525 5525 5526 5528 5530 5533 5536 5539 5543 5546 5550 5556 5565 5575 5588 5601 5613 5624 5633 5640 5645 5649 5653 5658 5662
5579 5575 5571 5566 5561 5555 5548 5542 5536 5531 5527 5524 5522 5521 5519 5518 5516 5515 5515 5516 5517 5519 5522 5526 5530 5532 5536 5540 5543 5547 5551 5561 5573 5587 5601 5613 5623 5631 5636 5640 5644 5647 5651
5572 5567 5562 5555 5548 5541 5533 5525 5518 5513 5510 5507 5506 5506 5505 5505 5505 5506 5507 5508 5509 5512 5515 5519 5523 5526 5530 5535 5538 5540 5543 5550 5561 5573 5588 5601 5612 5620 5626 5632 5636 5639 5642
5566 5560 5553 5544 5536 5527 5518 5509 5502 5496 5493 5490 5490 5491 5491 5492 5494 5496 5498 5500 5502 5504 5507 5511 5516 5520 5525 5529 5533 5535 5536 5542 5550 5561 5575 5588 5599 5609 5616 5623 5629 5633 5635
5561 5554 5545 5536 5526 5515 5504 5496 5488 5483 5479 5476 5476 5477 5478 5480 5486 5487 5490 5492 5495 5497 5500 5504 5508 5513 5519 5523 5527 5530 5532 5537 5542 5552 5564 5577 5587 5597 5605 5613 5618 5621 5625
5555 5547 5538 5529 5519 5507 5494 5486 5480 5474 5470 5467 5466 5467 5468 5471 5474 5478 5482 5485 5488 5491 5495 5498 5502 5507 5512 5517 5522 5525 5527 5531 5536 5545 5556 5567 5577 5586 5595 5602 5607 5612 5617
5550 5542 5532 5522 5513 5503 5492 5481 5474 5469 5465 5462 5461 5461 5463 5465 5468 5472 5477 5481 5485 5487 5491 5494 5498 5502 5506 5511 5515 5518 5521 5524 5529 5537 5547 5558 5568 5579 5588 5592 5598 5605 5609
5546 5536 5526 5516 5508 5500 5491 5483 5475 5468 5464 5461 5460 5460 5461 5463 5467 5471 5475 5480 5484 5487 5489 5492 5496 5498 5502 5508 5512 5514 5516 5519 5524 5530 5538 5549 5560 5571 5581 5587 5592 5597 5600
5543 5534 5525 5516 5508 5500 5493 5487 5479 5472 5466 5463 5462 5462 5462 5464 5468 5471 5476 5480 5483 5487 5490 5492 5495 5497 5501 5505 5507 5509 5511 5514 5517 5524 5534 5544 5556 5567 5577 5584 5587 5590 5593